EROS B (29079 NORAD) Tracking and Keplerian Element Data

This shows tracking and keplerian element data for the satellite.

Feedback or suggestion? Click here.




ElementValue
Catalog29079
NameEROS B
Epoch Orbit4277
Epoch Day35.214748
Epoch Year2025
RAAN149.1166
Inclination97.3375
Eccentricity0.0004991
Argument of Perigee142.4207
Mean Anonmoly217.7382
Mean Motion15.27590201
Decay Rate0.00042156
L11 29079U 06014A 25035.21474800 .00042156 00000+0 15577-2 0 9993
L22 29079 97.3375 149.1166 0004991 142.4207 217.7382 15.27590201 42776



Live tracking and technical data element details for EROS B (NORAD 29079). EROS B can be tracked NOW for your location showing map with azimuth and elevation plus other details from your city location.







IsCatalogInMostPopularTable: catalog: 29079, numindb: 342
Update: records affected: 1



GetName: 29079 EROS B

Hit Count: updated at: Thu, 22 May 2025 03:59:47 GMT